Date String (YYYY-MM-DD hh:mm:ss) UTC,Instrument flags,absolute air pressure of the measurement (hPa),sample flow rate (lpm),inlet stack bypass flow (lpm),air temperature of the measurement (°C),ambient temperature measured by the external sensor (°C),aerosol sample conditioner tube jacket temperature (°C),OPC LED temperature (°C),internal box temperature (°C),relative humidity of the measurement (%),span deviation,mass concentration of particles derived from Lorenz-Mie calculation of OPC scattering (μg/m³),mass concentration of particles derived from Lorenz-Mie calculation of OPC scattering (μg/m³),mass concentration of particles derived from Lorenz-Mie calculation of OPC scattering (μg/m³)
DateTimeUTC,F1_M11,P_M11,Q1_M11,Q2_M11,T1_M11,T2_M11,T3_M11,T4_M11,T5_M11,U1_M11,ZSPAN_M11,X2_M11,X0_M11,X1_M11
2023-12-26 20:00:00,SystemResetWarning,0822.7,4.99,000.00,018.8,017.9,000.0,027.2,020.0,14.6,0000.0,0002.44,0007.26,0001.68
2023-12-26 20:01:00,SystemResetWarning,0822.5,4.99,000.00,018.8,017.9,000.0,027.1,020.0,14.5,0000.0,0002.43,0007.37,0001.65
2023-12-26 20:02:00,SystemResetWarning,0822.6,5.00,000.00,018.8,017.9,000.0,027.2,020.0,14.4,0000.0,0002.45,0007.21,0001.65
2023-12-26 20:03:00,SystemResetWarning,0822.4,5.00,000.00,018.7,017.9,000.0,027.2,020.0,14.3,0000.0,0002.45,0006.44,0001.64
2023-12-26 20:04:00,SystemResetWarning,0822.6,5.00,000.00,018.7,017.9,000.0,027.2,020.0,14.6,0000.0,0002.40,0006.40,0001.61
2023-12-26 20:05:00,SystemResetWarning,0822.4,5.00,000.00,018.7,017.9,000.0,027.2,020.0,14.4,0000.0,0002.37,0006.33,0001.60
2023-12-26 20:06:00,SystemResetWarning,0822.4,5.00,000.00,018.7,017.9,000.0,027.2,020.0,14.9,0000.0,0002.35,0006.22,0001.61
2023-12-26 20:07:00,SystemResetWarning,0822.4,5.00,000.00,018.8,017.9,000.0,027.2,020.0,15.2,0000.0,0002.30,0006.12,0001.58
2023-12-26 20:08:00,SystemResetWarning,0822.4,5.00,000.00,018.8,017.9,000.0,027.2,020.0,15.0,0000.0,0002.33,0006.38,0001.56
2023-12-26 20:09:00,SystemResetWarning,0822.4,4.99,000.00,018.8,017.9,000.0,027.2,020.0,14.8,0000.0,0002.29,0006.07,0001.54
2023-12-26 20:10:00,SystemResetWarning,0822.4,5.00,000.00,018.8,017.9,000.0,027.2,020.0,14.8,0000.0,0002.27,0005.89,0001.55
2023-12-26 20:11:00,SystemResetWarning,0822.4,4.99,000.00,018.8,017.9,000.0,027.1,020.0,14.9,0000.0,0002.30,0005.96,0001.54
2023-12-26 20:12:00,SystemResetWarning,0822.7,5.00,000.00,018.8,017.9,000.0,027.1,020.0,14.7,0000.0,0002.29,0005.82,0001.55
2023-12-26 20:13:00,SystemResetWarning,0822.5,5.00,000.00,018.8,018.0,000.0,027.1,020.0,14.6,0000.0,0002.27,0005.77,0001.54
2023-12-26 20:14:00,SystemResetWarning,0822.4,5.01,000.00,018.8,018.0,000.0,027.1,020.0,14.9,0000.0,0002.19,0005.44,0001.53
2023-12-26 20:15:00,SystemResetWarning,0822.4,5.01,000.00,018.8,018.0,000.0,027.1,020.0,15.3,0000.0,0002.17,0005.37,0001.52
2023-12-26 20:16:00,SystemResetWarning,0822.4,5.01,000.00,018.8,018.0,000.0,027.1,020.0,15.2,0000.0,0002.17,0005.78,0001.52
2023-12-26 20:17:00,SystemResetWarning,0822.4,5.00,000.00,018.8,018.0,000.0,027.1,020.0,14.8,0000.0,0002.21,0006.06,0001.51
2023-12-26 20:18:00,SystemResetWarning,0822.4,4.99,000.00,018.8,018.0,000.0,027.1,020.0,14.7,0000.0,0002.22,0006.97,0001.50
2023-12-26 20:19:00,SystemResetWarning,0822.4,5.00,000.00,018.8,018.0,000.0,027.1,020.0,14.5,0000.0,0002.19,0007.15,0001.50
2023-12-26 20:20:00,SystemResetWarning,0822.5,5.00,000.00,018.8,018.0,000.0,027.1,020.0,14.5,0000.0,0002.23,0007.88,0001.51
2023-12-26 20:21:00,SystemResetWarning,0822.6,5.00,000.00,018.8,018.0,000.0,027.1,020.0,14.7,0000.0,0002.22,0008.20,0001.51
2023-12-26 20:22:00,SystemResetWarning,0822.8,5.00,000.00,018.8,018.0,000.0,027.1,020.0,14.6,0000.0,0002.20,0008.14,0001.51
2023-12-26 20:23:00,SystemResetWarning,0822.6,5.01,000.00,018.8,018.0,000.0,027.1,020.0,14.7,0000.0,0002.17,0008.57,0001.51
2023-12-26 20:24:00,SystemResetWarning,0822.5,5.00,000.00,018.8,018.0,000.0,027.1,020.0,14.9,0000.0,0002.18,0008.99,0001.51
2023-12-26 20:25:00,SystemResetWarning,0822.6,5.00,000.00,018.8,018.0,000.0,027.1,020.0,14.8,0000.0,0002.20,0009.00,0001.51
2023-12-26 20:26:00,SystemResetWarning,0822.5,5.01,000.00,018.8,018.0,000.0,027.1,020.0,14.8,0000.0,0002.22,0009.05,0001.51
2023-12-26 20:27:00,SystemResetWarning,0822.5,5.00,000.00,018.8,018.1,000.0,027.1,020.0,14.6,0000.0,0002.21,0009.13,0001.51
2023-12-26 20:28:00,SystemResetWarning,0822.4,5.00,000.00,018.8,018.1,000.0,027.1,020.0,14.7,0000.0,0002.15,0009.42,0001.51
2023-12-26 20:29:00,SystemResetWarning,0822.4,5.00,000.00,018.8,018.1,000.0,027.1,020.0,14.8,0000.0,0002.19,0009.27,0001.50
2023-12-26 20:30:00,SystemResetWarning,0822.4,5.00,000.00,018.8,018.1,000.0,027.1,020.0,15.1,0000.0,0002.23,0009.06,0001.51
2023-12-26 20:31:00,SystemResetWarning,0822.4,5.00,000.00,018.8,018.1,000.0,027.1,020.0,15.2,0000.0,0002.21,0008.11,0001.52
2023-12-26 20:32:00,SystemResetWarning,0822.4,5.00,000.00,018.8,018.1,000.0,027.1,020.0,14.9,0000.0,0002.18,0007.69,0001.52
2023-12-26 20:33:00,SystemResetWarning,0822.4,4.99,000.00,018.8,018.0,000.0,027.1,020.0,15.2,0000.0,0002.18,0007.65,0001.53
2023-12-26 20:34:00,SystemResetWarning,0822.4,5.00,000.00,018.8,018.0,000.0,027.1,020.0,15.4,0000.0,0002.22,0007.22,0001.55
2023-12-26 20:35:00,SystemResetWarning,0822.4,5.00,000.00,018.8,018.0,000.0,027.1,020.0,15.6,0000.0,0002.21,0006.28,0001.53
2023-12-26 20:36:00,SystemResetWarning,0822.6,5.00,000.00,018.8,018.0,000.0,027.1,020.0,15.2,0000.0,0002.21,0006.29,0001.51
2023-12-26 20:37:00,SystemResetWarning,0822.6,5.00,000.00,018.8,018.0,000.0,027.1,020.0,15.1,0000.0,0002.23,0006.31,0001.52
2023-12-26 20:38:00,SystemResetWarning,0822.5,5.00,000.00,018.8,018.0,000.0,027.1,020.0,15.3,0000.0,0002.24,0006.11,0001.54
2023-12-26 20:39:00,SystemResetWarning,0822.4,5.00,000.00,018.8,018.1,000.0,027.1,020.0,15.5,0000.0,0002.30,0005.29,0001.55
2023-12-26 20:40:00,SystemResetWarning,0822.5,5.01,000.00,018.8,018.1,000.0,027.1,020.0,15.4,0000.0,0002.33,0005.08,0001.58
2023-12-26 20:41:00,SystemResetWarning,0822.5,5.00,000.00,018.8,018.1,000.0,027.1,020.0,15.4,0000.0,0002.31,0004.51,0001.59
2023-12-26 20:42:00,SystemResetWarning,0822.4,5.00,000.00,018.8,018.1,000.0,027.2,020.0,15.4,0000.0,0002.30,0004.83,0001.60
2023-12-26 20:43:00,SystemResetWarning,0822.5,5.00,000.00,018.8,018.1,000.0,027.1,020.0,15.4,0000.0,0002.32,0005.11,0001.63
2023-12-26 20:44:00,SystemResetWarning,0822.6,5.00,000.00,018.8,018.1,000.0,027.2,020.0,15.7,0000.0,0002.37,0005.24,0001.65
2023-12-26 20:45:00,SystemResetWarning,0822.6,5.00,000.00,018.8,018.1,000.0,027.2,020.0,15.6,0000.0,0002.40,0005.61,0001.66
2023-12-26 20:46:00,SystemResetWarning,0822.8,5.00,000.00,018.8,018.0,000.0,027.2,020.0,15.4,0000.0,0002.44,0005.80,0001.69
2023-12-26 20:47:00,SystemResetWarning,0823.0,5.00,000.00,018.8,018.0,000.0,027.2,020.0,15.2,0000.0,0002.47,0005.98,0001.72
2023-12-26 20:48:00,SystemResetWarning,0823.0,5.00,000.00,018.8,018.0,000.0,027.2,020.0,15.1,0000.0,0002.52,0006.18,0001.74
2023-12-26 20:49:00,SystemResetWarning,0823.1,4.99,000.00,018.8,018.0,000.0,027.2,020.0,15.4,0000.0,0002.56,0006.43,0001.76
2023-12-26 20:50:00,SystemResetWarning,0823.1,5.00,000.00,018.8,018.0,000.0,027.2,020.0,15.5,0000.0,0002.54,0007.32,0001.78
2023-12-26 20:51:00,SystemResetWarning,0822.8,5.00,000.00,018.8,018.0,000.0,027.2,020.0,15.4,0000.0,0002.47,0007.52,0001.80
2023-12-26 20:52:00,SystemResetWarning,0822.7,5.00,000.00,018.8,018.0,000.0,027.2,020.0,15.4,0000.0,0002.51,0007.49,0001.81
2023-12-26 20:53:00,SystemResetWarning,0822.9,5.00,000.00,018.8,018.0,000.0,027.2,020.0,15.4,0000.0,0002.53,0007.60,0001.82
2023-12-26 20:54:00,SystemResetWarning,0822.7,5.00,000.00,018.8,018.0,000.0,027.2,020.0,15.4,0000.0,0002.54,0007.69,0001.82
2023-12-26 20:55:00,SystemResetWarning,0822.6,5.00,000.00,018.8,018.0,000.0,027.1,020.0,15.3,0000.0,0002.53,0007.61,0001.82
2023-12-26 20:56:00,SystemResetWarning,0822.5,5.00,000.00,018.8,018.0,000.0,027.1,020.0,15.3,0000.0,0002.50,0007.32,0001.82
2023-12-26 20:57:00,SystemResetWarning,0822.5,5.00,000.00,018.8,018.0,000.0,027.1,020.0,15.3,0000.0,0002.48,0007.29,0001.81
2023-12-26 20:58:00,SystemResetWarning,0822.5,5.00,000.00,018.8,018.1,000.0,027.1,020.0,15.3,0000.0,0002.46,0007.50,0001.81
2023-12-26 20:59:00,SystemResetWarning,0822.6,5.00,000.00,018.8,018.1,000.0,027.2,020.0,15.4,0000.0,0002.43,0007.54,0001.83
